Other Surface Observations
Issued by NWS Tucson, AZ

Home | Current Version | Previous Version | Text Only | Print | Product List | Glossary On
Versions: 1 2 3 4 5 6 7 8 9 10 11 12 13 14 15 16 17 18 19 20 21 22 23 24 25 26 27 28 29 30 31 32 33 34 35 36 37 38 39 40 41 42 43 44 45 46 47 48 49 50
000
SXUS55 KTWC 230916
OSOTWC

WEATHER ROUNDUP FOR SOUTHEAST ARIZONA
NATIONAL WEATHER SERVICE TUCSON AZ
215 AM MST WED APR 23 2014

AZZ504>506-514-231015-
LOCATION       SKY/WX    TMP DP  RH WIND       PRES   REMARKS
TUCSON         CLEAR     68  27  21 SW8       29.85F
DAVIS-MONTHAN  CLEAR     68  28  22 W3        29.84F
CHILDRENS PARK N/A      N/A N/A N/A N/A               PIMA CO DEQ
ALVERNON/22ND  N/A       69 N/A N/A E1                PIMA CO DEQ
CHERRY/GLENN   N/A      N/A N/A N/A N/A               PIMA CO DEQ
TANGERINE      N/A       61 N/A N/A NE1               PIMA CO DEQ
CONTL RANCH    N/A       65  28  25 E1                PIMA CO DEQ
GRANT/1ST      N/A       69  27  21 E2                PIMA CO DEQ
CRAYCROFT/22ND N/A       68  29  23 SE5               PIMA CO DEQ
GOLFLINKS/KOLB N/A      N/A N/A N/A N/A               PIMA CO DEQ
AJO/12TH       N/A       68  28  22 S7                PIMA CO DEQ
SAGUARO EAST   N/A       69  30  23 SE4               PIMA CO DEQ
FAIRGROUNDS    N/A       64 N/A N/A SW4               PIMA CO DEQ
SAGUARO        N/A       60  27  28 S2                *SABINO CYN
SAN CARLOS     N/A       71  28  20 CALM              *SAN CARLOS
GREEN VALLEY   N/A       65  28  25 SW2               PIMA CO DEQ
HORSE CAMP CYN N/A       64  26  24 W8G17             *ARAVAIPA CYN
RINCON MTNS    N/A       42  19  40 SW6G16            *NR MANNING CAMP
$$

AZZ509>511-231015-
LOCATION       SKY/WX    TMP DP  RH WIND       PRES   REMARKS
SAFFORD        PTCLDY    69  27  20 NW10      29.80S
STRAY HORSE    N/A       49  20  32 W8G19             *
TRAIL CABIN    N/A       55  24  30 W4G10             *N OF GRANVILLE
BLACK HILLS    N/A       67  28  23 NW3G12            *N OF FT THOMAS
DRY LAKE       N/A       49  23  35 W7G14             *NATANES MTNS
NOON CREEK     N/A       64  26  24 SW5G13            *PINALENO MTNS
COLUMBINE      N/A       40  22  48 S9G19             *PINALENO MTNS
GUTHRIE        N/A       58  24  27 W18G35            *SW OF GUTHRIE
$$

AZZ502-503-513-231015-
LOCATION       SKY/WX    TMP DP  RH WIND       PRES   REMARKS
NOGALES        PTCLDY    61  26  26 SE6       29.91F
SELLS          N/A       60  28  29 NE4               *
SASABE         N/A       57  28  33 W7                *ALTAR VLY
HOPKINS        N/A       49  20  31 W11G22            *SANTA RITA MTNS
CARR CYN       N/A       60  25  26 W7G16             *W OF HEREFORD
$$

AZZ507-508-512-231015-
LOCATION       SKY/WX    TMP DP  RH WIND       PRES   REMARKS
SIERRA VISTA   PTCLDY    61  27  27 SW7       29.93F
DOUGLAS        MOCLDY    61  24  24 W7        29.92S
EMPIRE MTNS    N/A       55  26  32 SW6G16            *LAS CIENEGAS NCA
MULESHOE RANCH N/A       63  25  23 NW8G22            *PRESERVE
HEADQUARTERS   N/A       58  25  28 NW2               *CHIRICAHUA MTNS
$$

.............................NOTES.............................
THIS IS AN AUTOMATED COLLECTIVE WITH MINIMAL QUALITY CONTROL.
PIMA CO DEQ SITES HAVE NONSTANDARD WIND SENSOR HEIGHTS.
PIMA CO DEQ SITES DO NOT REPORT WIND GUSTS.
* INDICATES WIND SENSORS LOCATED AT 20 FEET INSTEAD OF 33 FEET.
..............................KEY..............................
SKY/WX - SKY CONDITION/WEATHER
TMP    - TEMPERATURE IN FAHRENHEIT
DP     - DEWPOINT IN FAHRENHEIT
RH     - RELATIVE HUMIDITY IN PERCENT
WIND   - DIRECTION AND SPEED IN MILES PER HOUR (MPH)
VRB    - VARIABLE WIND DIRECTION
PRES   - MEAN SEA LEVEL PRESSURE IN INCHES OF MERCURY
         F - FALLING PRESSURE   R - RISING PRESSURE
         S - STEADY PRESSURE
VSB    - VISIBILITY IN MILES
HX     - HEAT INDEX IN FAHRENHEIT
WCI    - WIND CHILL INDEX IN FAHRENHEIT
N/A    - NOT AVAILABLE
AFB    - AIR FORCE BASE
         DAVIS-MONTHAN IS DAVIS-MONTHAN AIR FORCE BASE
CYN    - CANYON
MTNS   - MOUNTAINS
NCA    - NATIONAL CONSERVATION AREA
NR     - NEAR
VLY    - VALLEY
CONTL  - CONTINENTAL
PIMA CO DEQ - PIMA COUNTY DEPT OF ENVIRONMENTAL QUALITY



USA.gov is the U.S. government's official web portal to all federal, state and local government web resources and services.